Regional Weather Roundup
Issued by NWS Northern Indiana

Home | Current Version | Previous Version | Graphics & Text | Print | Product List | Glossary On
Versions: 1 2 3 4 5 6 7 8 9 10 11 12 13 14 15 16 17 18 19 20 21 22 23 24 25 26 27 28 29 30 31 32 33 34 35 36 37 38 39 40 41 42 43 44 45 46 47 48 49 50
000
ASUS43 KIWX 251000
RWRIWX

KIWX WEATHER ROUNDUP
NATIONAL WEATHER SERVICE NORTHERN INDIANA
600 AM EDT WED MAY 25 2016

NOTE: "FAIR" INDICATES FEW OR NO CLOUDS BELOW 12,000 FEET WITH NO
SIGNIFICANT WEATHER AND/OR OBSTRUCTIONS TO VISIBILITY.

* THESE STATIONS ARE NOT UNDER NWS QUALITY CONTROL. THEY ALSO MAY NOT
  REPORT WEATHER SUCH AS PRECIPITATION OR FOG.

INZ001>027-251100-
NORTHERN INDIANA

CITY           SKY/WX    TMP DP  RH WIND       PRES   REMARKS
GARY*          PTCLDY    70  64  83 S3        30.00F
SOUTH BEND     PTCLDY    65  54  67 SW3       30.04R
GOSHEN         CLOUDY    59  52  77 SE5       30.05S
ANGOLA*        CLEAR     55  55 100 CALM      30.06S
FORT WAYNE     CLOUDY    63  53  70 SE3       30.07S

$$
INZ028>050-251100-
CENTRAL INDIANA

CITY           SKY/WX    TMP DP  RH WIND       PRES   REMARKS
LAFAYETTE      MOCLDY    62  56  80 CALM      30.02F
KOKOMO*        CLOUDY    61  54  77 S7        30.05S
MUNCIE*        MOCLDY    66  53  63 S5        30.07S
INDIANAPOLIS   CLOUDY    66  57  72 SE8       30.04S

$$
MIZ043>046-050>051-056>058-064>065-071>073-077>080-251100-
SOUTHWEST LOWER MICHIGAN

CITY           SKY/WX    TMP DP  RH WIND       PRES   REMARKS
BATTLE CREEK   PTCLDY    62  53  72 SW7       30.05R
BENTON HARBOR  CLOUDY    67  56  67 S3        30.01S
COLDWATER*     PTCLDY    62  52  71 CALM      30.06R
HILLSDALE*     CLOUDY    65  47  52 CALM      30.07R
HOLLAND        CLOUDY    69  56  62 SW9       30.02R
GRAND RAPIDS   CLOUDY    67  54  63 S6        30.02R
KALAMAZOO      PTCLDY    65  53  65 S6        30.05R
STURGIS*       PTCLDY    62  53  73 CALM      30.04S
THREE RIVERS*  FAIR      63  54  72 CALM      30.05S

$$
OHZ001>008-015>018-024>025-251100-
NORTHWEST OHIO

CITY           SKY/WX    TMP DP  RH WIND       PRES   REMARKS
DEFIANCE       CLOUDY    61  51  70 S3        30.06S
FINDLAY        CLOUDY    60  47  61 S9        30.08R
TOLEDO EXPRESS CLOUDY    56  49  77 CALM      30.06S
TOLEDO METCALF MOCLDY    61  48  62 SW6       30.07S
LIMA           CLOUDY    62  49  62 S7        30.10R

$$
AND FOR LAKE MICHIGAN COASTAL AND OPEN LAKE BUOY OBSERVATIONS

STATION/POSITION TEMP    WIND        PRES    VSBY  WAVE
                 AIR SEA DIR/SP/G                  HT/PER
                 (F)     (DEG/KT/KT) (MB)    (MI)  (FT/S)
CALUMET HARBOR    71     200/  8/ 10 1015.2S
MICHIGAN CITY     70     150/ 12/ 15   N/A
BURNS HARBOR      69     190/  7/ 10 1016.3F
SAINT JOSEPH      72     170/  8/ 15 1016.3F
SOUTH LAKE BUOY   54 49  170/ 10/ 10 1015.0          0
4 MI NW BRIDGMAN  63 58  180/  6/  6   N/A           1
MICHIGAN CITY     63 57  190/  6/  8   N/A           1

$$
&&




USA.gov is the U.S. government's official web portal to all federal, state and local government web resources and services.